Weather in Alkatvaam

Russia / Chukotka Autonomous Okrug     63°07′47″N   179°01′44″E
temp.,
°C
wind,
m/s
gust,
m/s
humid.,
%
clouds,
%
prec.,
mm/h
press.,
hPa
HPBL,
m
26 february, fri
fri2600:00−28nw4594100 0.1 101891
03:00−29nw4594100 0.0 101973
06:00−30nw3495100 0.0 102153
09:00−30nw4595100 0.0 1022112
12:00−28nw4694100 0.0 1024247
15:00−29nw4697100 0.0 1023180
18:00−29nw4598100 0.1 102482
21:00−30nw4498100 0.0 102570
27 february, sat
sat2700:00−31nw4599100 0.1 102579
03:00−32nw4499100 0.0 102570
06:00−32nw4498100 0.0 102465
09:00−32nw469690 0.0 1025118
12:00−30nw569279 0.0 1024229
15:00−30nw569061 0.0 1023186
18:00−32wnw559281 0.0 102383
21:00−31nw4589100 0.0 102470
28 february, sun
sun2800:00−32wnw448579 0.0 102451
03:00−32wnw448327 0.0 102437
06:00−31wnw338013 0.0 102528
09:00−30nw33770 0.0 102737
12:00−27nw33790 0.0 102891
15:00−28nnw33790 0.0 102841
18:00−31nnw33810 0.0 102825
21:00−33nnw22840 0.0 102919
1 march, mon
mon100:00−33nnw23850 0.0 102720
03:00−33nnw238916 0.0 102322
06:00−31nnw349854 0.0 101845
09:00−26nne51197100 0.0 1013551
12:00−22ene91588100 0.1 1007819
15:00−21ne121796100 0.4 1001959
18:00−21ne121798100 2.5 996943
21:00−20nne131798100 2.4 995970
2 march, tue
tue200:00−21nne121798100 3.9 993836
03:00−22n101795100 0.9 994768
06:00−23n101590100 1.1 995923
09:00−24n121691100 0.1 997918
12:00−23n131687100 0.1 999984
15:00−22n131686100 0.1 10011013
18:00−21nnw101585100 0.2 1004969
21:00−24nw61290100 0.0 1008310